User: anonymous   Login
Location: Unspecified
(0.0000°N, 0.0000°E)
Time: 13:48:19
(UTC+00:00)
Language:

Explorer 7 - Orbit

View from above orbital plane
View from above orbital plane
View from above satellite
View from above satellite

Ground track
Ground track

The orbit data is extracted from the following two-line orbital elements,

1    22U 59009A   19051.95430837 +.00000266 +00000-0 +43039-4 0  9999
2    22 050.2836 205.3327 0140463 215.7139 143.4350 14.94763482398196
Epoch (UTC): 20 February 2019 22:54:12
Eccentricity: 0.0140463
inclination: 50.2836°
perigee height: 485 km
apogee height: 681 km
right ascension of ascending node: 205.3327°
argument of perigee: 215.7139°
revolutions per day: 14.94763482
mean anomaly at epoch: 143.4350°
orbit number at epoch: 39819

The dashed part of the orbit path shows where the satellite is in the earth's shadow,  

DLR